Location: Béaulencourt
(50.0796°N, 2.8795°E)
Time: 07:07:51
(UTC+00:00)

YAOGAN 1 - Pass Details

Date: 20 January 2026
Orbit: 605 x 607 km, 97.8° (Epoch: 18 February)

Event Time Altitude Azimuth Distance (km) Brightness Sun altitude
Rises 06:35:47 0° 21° (NNE) 2,876 6.0 -9.7°
Reaches altitude 10° 06:38:09 10° 30° (NNE) 1,966 5.3 -9.3°
Maximum altitude 06:42:03 34° 96° (E) 1,012 4.5 -8.8°
Drops below altitude 10° 06:45:55 10° 162° (SSE) 1,950 5.7 -8.2°
Sets 06:48:14 0° 172° (S) 2,848 6.4 -7.8°
